Location: Be?chatów
(51.3665°N, 19.3745°E)
Time: 22:22:47
(UTC+00:00)

Cosmos 1339 Rocket - Pass Details

Date: 19 May 2025
Orbit: 941 x 1005 km, 82.9° (Epoch: 16 June)

Event Time Altitude Azimuth Distance (km) Brightness Sun altitude
Exits shadow 21:35:54 26° 182° (S) 1,769 5.3 -17.3°
Maximum altitude 21:39:32 82° 98° (E) 958 4.4 -17.5°
Drops below altitude 10° 21:45:38 10° 11° (NNE) 2,672 7.8 -17.7°
Sets 21:48:07 0° 11° (N) 3,623 8.7 -17.8°
